Weather History for Detroit Metro, MI

Change the Weather History Date:

Thursday, October 4, 2012

  Actual Average Record
Temperature  
Mean Temperature 67 °F 57 °F  
Max Temperature 77 °F 66 °F 89 °F (1951)
Min Temperature 57 °F 47 °F 32 °F (1989)
Degree Days  
Heating Degree Days 0 9  
Month to date heating degree days 13 34  
Since 1 July heating degree days 126 148  
Cooling Degree Days 2 1  
Month to date cooling degree days 2 4  
Year to date cooling degree days 1150 799  
Growing Degree Days 17 (Base 50)    
Moisture  
Dew Point 52 °F    
Average Humidity 64    
Maximum Humidity 86    
Minimum Humidity 41    
Precipitation  
Precipitation T in 0.08 in 1.06 in (2000)
Month to date precipitation 0.21 0.35  
Year to date precipitation 21.64 26.05  
Snow  
Snow 0.00 in 0.00 in 0.00 in ()
Month to date snowfall 0.0 0.0  
Since 1 July snowfall 0.0 0.0  
Since 1 September snowfall 0.0 0.0  
Snow Depth 0.00 in    
Sea Level Pressure  
Sea Level Pressure 30.06 in    
Wind  
Wind Speed 12 mph (SSW)    
Max Wind Speed 23 mph    
Max Gust Speed 28 mph    
Visibility 10 miles    
Events      
T = Trace of Precipitation, MM = Missing Value Source: NWS Daily Summary

Daily Weather History Graph

Daily Weather History Graph

Search for Another Location

Airport:

Trip Planner

Search our weather history database for the weather conditions in past years. The results will help you decide how hot, cold, wet, or windy it might be!

Date:

Astronomy

Oct. 04, 2012 Rise Set
Actual Time 7:34 AM EDT 7:08 PM EDT
Civil Twilight 7:06 AM EDT 7:36 PM EDT
Nautical Twilight 6:33 AM EDT 8:09 PM EDT
Astronomical Twilight 6:00 AM EDT 8:41 PM EDT
Moon 9:38 PM EDT (10/4) 11:55 AM EDT (10/4)
Length of Visible Light 12h 30m
Length of Day
11h 34m
Waning Gibbous, 82% of the Moon is Illuminated
Oct 4
Waning Gibbous
Oct 8
Last Quarter
Oct 15
New
Oct 21
First Quarter
Oct 29
Full

Hourly Weather History & Observations

Time (EDT) Temp. Dew Point Humidity Pressure Visibility Wind Dir Wind Speed Gust Speed Precip Events Conditions
12:53 AM 60.1 °F 55.0 °F 83% 30.09 in 10.0 mi SSE 6.9 mph - N/A   Mostly Cloudy
1:53 AM 59.0 °F 54.0 °F 83% 30.09 in 10.0 mi South 8.1 mph - N/A   Mostly Cloudy
2:53 AM 57.9 °F 53.1 °F 84% 30.08 in 10.0 mi South 6.9 mph - N/A   Clear
3:53 AM 57.0 °F 52.0 °F 83% 30.08 in 10.0 mi South 6.9 mph - N/A   Partly Cloudy
4:53 AM 57.9 °F 52.0 °F 81% 30.08 in 10.0 mi South 9.2 mph - N/A   Mostly Cloudy
5:53 AM 60.1 °F 52.0 °F 75% 30.08 in 10.0 mi South 8.1 mph - N/A   Mostly Cloudy
6:53 AM 57.9 °F 50.0 °F 75% 30.09 in 10.0 mi South 8.1 mph - N/A   Scattered Clouds
7:53 AM 57.0 °F 50.0 °F 77% 30.09 in 10.0 mi South 10.4 mph - N/A   Scattered Clouds
8:53 AM 59.0 °F 51.1 °F 75% 30.09 in 10.0 mi SSW 12.7 mph - N/A   Partly Cloudy
9:53 AM 62.1 °F 51.1 °F 67% 30.10 in 10.0 mi SSW 11.5 mph - N/A   Scattered Clouds
10:53 AM 66.0 °F 53.1 °F 63% 30.10 in 10.0 mi SW 11.5 mph - N/A   Scattered Clouds
11:53 AM 69.1 °F 53.1 °F 57% 30.11 in 10.0 mi SW 12.7 mph - N/A   Scattered Clouds
12:53 PM 70.0 °F 52.0 °F 53% 30.10 in 10.0 mi SW 13.8 mph 21.9 mph N/A   Mostly Cloudy
1:53 PM 73.9 °F 51.1 °F 45% 30.07 in 10.0 mi SW 17.3 mph 24.2 mph N/A   Scattered Clouds
2:53 PM 75.9 °F 51.1 °F 42% 30.05 in 10.0 mi WSW 18.4 mph 23.0 mph N/A   Scattered Clouds
3:53 PM 75.9 °F 50.0 °F 40% 30.04 in 10.0 mi SW 13.8 mph - N/A   Scattered Clouds
4:53 PM 75.9 °F 50.0 °F 40% 30.04 in 10.0 mi SSW 18.4 mph - N/A   Partly Cloudy
5:53 PM 75.0 °F 50.0 °F 41% 30.04 in 10.0 mi SSW 17.3 mph - N/A   Partly Cloudy
6:53 PM 72.0 °F 51.1 °F 48% 30.04 in 10.0 mi South 10.4 mph - N/A   Partly Cloudy
7:53 PM 68.0 °F 51.1 °F 55% 30.02 in 10.0 mi SSE 8.1 mph - N/A   Partly Cloudy
8:53 PM 68.0 °F 51.1 °F 55% 30.02 in 10.0 mi SSE 10.4 mph - N/A   Partly Cloudy
9:53 PM 66.9 °F 51.1 °F 57% 30.01 in 10.0 mi South 9.2 mph - N/A   Partly Cloudy
10:53 PM 68.0 °F 53.1 °F 59% 30.01 in 10.0 mi South 11.5 mph - N/A   Overcast
11:53 PM 70.0 °F 53.1 °F 55% 30.01 in 10.0 mi SW 12.7 mph 27.6 mph N/A   Mostly Cloudy